GW6479 Weather Reports


time (UTC)temp
F
wind
direction
speed
knots
gust
knots
rain 1hr
in
rain 24hr
in
rain mn
in
humidity
%
barometer
mb
20260906141030 82 195 1.7 5.2 0.00 0.00 0.00 68 1013.0
20260906140351 82 237 1.7 2.6 0.00 0.00 0.00 68 1013.1
20260906135924 82 320 0.9 3.5 0.00 0.00 0.00 69 1013.1
20260906135031 81 169 2.6 4.3 0.00 0.00 0.00 71 1013.0
20260906134350 80 126 2.6 5.2 0.00 0.00 0.00 72 1013.1
20260906133921 79 145 4.3 5.2 0.00 0.00 0.00 75 1013.1
20260906133030 79 128 3.5 5.2 0.00 0.00 0.00 76 1013.4
20260906132602 78 124 3.5 4.3 0.00 0.00 0.00 77 1013.5
20260906131710 78 114 2.6 4.3 0.00 0.00 0.00 78 1013.6
20260906131030 78 94 1.7 5.2 0.00 0.00 0.00 80 1013.6
20260906130350 78 129 1.7 6.1 0.00 0.00 0.00 80 1013.6
20260906125710 77 132 2.6 6.1 0.00 0.00 0.00 82 1013.7
20260906125240 78 109 1.7 3.5 0.00 0.00 0.00 81 1013.7
20260906124350 77 90 0.9 1.7 0.00 0.00 0.00 84 1013.6
20260906123710 76 263 1.7 2.6 0.00 0.00 0.00 85 1013.7
20260906123030 76 116 0.9 2.6 0.00 0.00 0.00 86 1013.7
20260906122351 75 156 1.7 2.6 0.00 0.00 0.00 88 1013.6
20260906121711 75 109 0.9 1.7 0.00 0.00 0.00 88 1013.7
20260906121030 75 230 0.9 1.7 0.00 0.00 0.00 87 1013.7
20260906120350 74 351 0.9 1.7 0.00 0.00 0.00 89 1013.7
20260906115710 74 164 1.7 1.7 0.00 0.00 0.00 90 1013.6
20260906115030 73 332 0.9 1.7 0.00 0.00 0.00 92 1013.7
20260906114350 73 65 0.9 1.7 0.00 0.00 0.00 91 1013.8
20260906113710 72 349 0.9 1.7 0.00 0.00 0.00 93 1013.8
20260906113030 72 341 0.9 1.7 0.00 0.00 0.00 93 1013.7
20260906112350 72 105 0.9 3.5 0.00 0.00 0.00 94 1013.6
20260906111924 72 76 1.7 4.3 0.00 0.00 0.00 95 1013.5
20260906111030 72 93 2.6 4.3 0.00 0.00 0.00 94 1013.4
20260906110351 73 109 2.6 3.5 0.00 0.00 0.00 93 1013.2
20260906105921 73 162 0.9 2.6 0.00 0.00 0.00 91 1013.2
20260906105030 73 243 0.9 5.2 0.00 0.00 0.00 90 1013.2
20260906104350 73 193 3.5 5.2 0.00 0.00 0.00 93 1013.2
20260906103710 73 260 1.7 2.6 0.00 0.00 0.00 90 1013.4
20260906103243 73 194 1.7 3.5 0.00 0.00 0.00 91 1012.9
20260906102350 72 174 1.7 5.2 0.00 0.00 0.00 92 1012.8
20260906101710 73 335 3.5 5.2 0.00 0.00 0.00 91 1013.0
20260906101030 73 117 1.7 5.2 0.00 0.00 0.00 91 1012.5
20260906100350 72 27 1.7 2.6 0.00 0.00 0.00 92 1012.5
20260906095710 72 70 0.9 3.5 0.00 0.00 0.00 93 1012.3
20260906095031 73 48 1.7 3.5 0.00 0.00 0.00 91 1012.3
20260906094350 73 224 0.9 2.6 0.00 0.00 0.00 91 1012.4
20260906093923 73 1 1.7 2.6 0.00 0.00 0.00 90 1012.2
20260906093244 73 191 1.7 2.6 0.00 0.00 0.00 89 1012.4
20260906092351 73 328 1.7 1.7 0.00 0.00 0.00 90 1012.5
20260906091710 72 249 1.7 2.6 0.00 0.00 0.00 92 1012.6
20260906091030 72 260 1.7 3.5 0.00 0.00 0.00 93 1012.5
20260906090350 72 316 2.6 3.5 0.00 0.00 0.00 90 1012.6
20260906085710 72 318 1.7 2.6 0.00 0.00 0.00 90 1012.8
20260906084350 73 261 2.6 7.0 0.00 0.00 0.00 86 1012.4
20260906083710 74 223 3.5 8.7 0.00 0.00 0.00 83 1012.0
20260906083030 75 193 7.0 8.7 0.00 0.00 0.00 81 1012.4
20260906082350 75 176 3.5 7.8 0.00 0.00 0.00 80 1012.6
20260906081710 75 121 0.9 6.1 0.00 0.00 0.00 83 1012.8
20260906081030 74 123 3.5 6.1 0.00 0.00 0.00 85 1012.9
20260906080350 75 160 3.5 12.2 0.00 0.00 0.00 85 1013.1
20260906075923 75 99 7.0 12.2 0.00 0.00 0.00 86 1013.2
20260906075031 74 56 2.6 8.7 0.00 0.00 0.00 90 1013.3
20260906074350 75 48 2.6 10.4 0.00 0.00 0.00 89 1013.6
20260906073710 75 32 6.1 13.9 0.00 0.00 0.00 88 1013.5
20260906073030 76 24 7.0 24.3 0.00 0.00 0.00 86 1013.6
20260906072350 78 43 7.8 16.5 0.00 0.00 0.00 80 1013.6
20260906071711 78 50 7.0 16.5 0.00 0.00 0.00 80 1013.3
20260906071242 77 10 7.0 13.0 0.00 0.00 0.00 82 1013.5
20260906070603 77 80 2.6 7.0 0.00 0.00 0.00 81 1012.8
20260906065711 78 88 3.5 5.2 0.00 0.00 0.00 79 1013.0
20260906065031 78 51 1.7 8.7 0.00 0.00 0.00 76 1013.0
20260906064350 78 8 3.5 8.7 0.00 0.00 0.00 77 1013.0
20260906063710 78 32 3.5 8.7 0.00 0.00 0.00 80 1013.1
20260906063030 77 41 5.2 9.6 0.00 0.00 0.00 83 1012.9
20260906062350 78 125 4.3 7.8 0.00 0.00 0.00 83 1012.7
20260906061710 79 143 3.5 7.0 0.00 0.00 0.00 79 1012.6
20260906061030 79 113 4.3 7.8 0.00 0.00 0.00 83 1012.8
20260906060603 77 173 5.2 7.8 0.00 0.00 0.00 88 1013.0
20260906055711 78 219 2.6 4.3 0.00 0.00 0.00 92 1012.9
20260906055239 78 290 1.7 4.3 0.00 0.00 0.00 91 1013.0
20260906054350 77 51 1.7 2.6 0.00 0.00 0.00 92 1013.1
20260906053710 78 301 0.9 10.4 0.00 0.00 0.00 91 1012.8
20260906053030 77 28 4.3 10.4 0.00 0.00 0.00 94 1013.0
20260906052350 77 32 3.5 6.1 0.00 0.00 0.00 92 1012.8
20260906051710 77 205 1.7 3.5 0.00 0.00 0.00 92 1012.6
20260906051031 77 221 2.6 4.3 0.00 0.00 0.00 93 1012.5
20260906050350 77 228 2.6 5.2 0.00 0.00 0.00 96 1012.4
20260906045710 76 222 2.6 4.3 0.00 0.00 0.24 95 1012.4
20260906045030 77 213 1.7 1.7 0.00 0.00 0.24 92 1012.5
20260906044350 77 45 0.9 2.6 0.00 0.00 0.24 93 1012.5
20260906043710 76 26 0.9 1.7 0.00 0.00 0.24 95 1012.6
20260906043242 76 5 0.9 2.6 0.00 0.00 0.24 98 1012.7
20260906042350 75 332 0.9 2.6 0.00 0.00 0.24 98 1012.7
20260906041710 76 325 0.9 1.7 0.00 0.00 0.24 97 1012.7
20260906041030 76 317 0.9 1.7 0.00 0.00 0.24 95 1012.7
20260906040350 77 334 0.9 0.9 0.00 0.00 0.24 92 1012.8
20260906035710 78 217 0.9 0.9 0.00 0.00 0.24 90 1012.8
20260906035241 77 320 0.9 1.7 0.00 0.00 0.24 92 1012.9
20260906034350 77 247 0.9 1.7 0.00 0.00 0.24 92 1012.8
20260906033712 77 201 0.9 1.7 0.00 0.00 0.24 92 1012.8
20260906032351 77 38 0.9 1.7 0.00 0.00 0.24 94 1012.7
20260906031711 76 233 0.9 2.6 0.00 0.00 0.24 97 1012.5
20260906031031 75 277 0.9 2.6 0.00 0.00 0.24 99 1012.5
20260906030350 75 292 0.9 1.7 0.00 0.00 0.24 100 1012.6
20260906025710 75 289 0.9 2.6 0.00 0.00 0.24 100 1012.6
20260906025030 75 295 1.7 2.6 0.00 0.00 0.24 100 1012.7
20260906024350 75 348 1.7 3.5 0.00 0.00 0.24 100 1012.5
20260906023711 75 7 1.7 3.5 0.00 0.00 0.24 100 1012.4
20260906023243 75 329 0.9 2.6 0.00 0.00 0.24 100 1012.2
20260906022351 75 246 1.7 2.6 0.00 0.00 0.24 100 1012.2
20260906021710 75 287 1.7 1.7 0.00 0.00 0.24 100 1012.0
20260906021030 75 147 0.9 2.6 0.00 0.00 0.24 100 1012.0
20260906020350 75 172 1.7 2.6 0.00 0.00 0.24 100 1012.0
20260906015710 75 194 0.9 1.7 0.00 0.00 0.24 100 1011.9
20260906015242 75 0 0.0 2.6 0.00 0.00 0.24 100 1011.9
20260906014350 75 14 0.9 2.6 0.00 0.00 0.24 100 1011.7
20260906013923 74 294 1.7 2.6 0.00 0.00 0.24 100 1011.6
20260906013030 74 296 0.9 2.6 0.00 0.00 0.24 100 1011.6
20260906012350 74 316 1.7 3.5 0.00 0.00 0.24 100 1011.5
20260906011710 74 295 1.7 3.5 0.00 0.00 0.24 100 1011.4
20260906011031 74 325 2.6 3.5 0.00 0.00 0.24 100 1011.4
20260906010350 75 242 0.9 6.1 0.00 0.00 0.24 100 1011.3
20260906005030 75 196 0.9 7.8 0.00 0.00 0.24 100 1011.1
20260906003710 74 23 1.7 4.3 0.00 0.00 0.24 100 1011.1
20260906003030 74 256 2.6 5.2 0.00 0.00 0.24 100 1011.1
20260906002350 74 233 1.7 6.1 0.00 0.00 0.24 100 1011.2
20260906001921 74 234 1.7 4.3 0.00 0.00 0.24 99 1011.5
20260906001030 74 121 1.7 13.0 0.00 0.00 0.24 97 1011.7
20260906000350 76 242 4.3 33.0 0.00 0.00 0.23 79 1011.9
20260905235710 83 301 11.3 33.9 0.00 0.00 0.17 61 1012.2
20260905235030 78 341 18.2 33.9 0.00 0.00 0.07 83 1012.1
20260905234350 87 343 14.8 28.7 0.00 0.00 0.00 60 1011.7
20260905233710 89 58 1.7 3.5 0.00 0.00 0.00 55 1011.3
20260905233031 89 114 1.7 4.3 0.00 0.00 0.00 54 1011.2
20260905232350 90 111 3.5 5.2 0.00 0.00 0.00 53 1011.1
20260905231921 91 153 3.5 7.0 0.00 0.00 0.00 50 1010.9
20260905231030 91 120 2.6 7.0 0.00 0.00 0.00 49 1011.0
20260905230350 91 157 3.5 7.8 0.00 0.00 0.00 49 1010.9
20260905225710 92 162 4.3 8.7 0.00 0.00 0.00 49 1010.8
20260905225244 92 137 6.1 11.3 0.00 0.00 0.00 49 1010.8
20260905224351 93 139 8.7 14.8 0.00 0.00 0.00 48 1010.8
20260905223711 95 141 10.4 14.8 0.00 0.00 0.00 45 1010.8
20260905223030 98 71 3.5 6.1 0.00 0.00 0.00 42 1010.7
20260905221710 99 17 1.7 7.8 0.00 0.00 0.00 41 1010.7
20260905221030 98 332 4.3 8.7 0.00 0.00 0.00 39 1010.7
20260905220603 98 327 4.3 10.4 0.00 0.00 0.00 39 1010.8
20260905215710 98 359 6.1 10.4 0.00 0.00 0.00 41 1010.7
20260905215031 98 307 3.5 8.7 0.00 0.00 0.00 39 1010.8
20260905214350 100 255 1.7 5.2 0.00 0.00 0.00 35 1010.8
20260905213710 99 307 2.6 6.1 0.00 0.00 0.00 37 1010.8
20260905213031 99 30 1.7 7.8 0.00 0.00 0.00 39 1010.9
20260905212350 98 358 4.3 7.8 0.00 0.00 0.00 38 1010.8
20260905211710 100 298 4.3 6.1 0.00 0.00 0.00 37 1010.8
20260905211243 101 28 1.7 7.0 0.00 0.00 0.00 36 1010.8
20260905210350 100 291 4.3 7.0 0.00 0.00 0.00 36 1010.7
20260905205710 99 315 4.3 6.1 0.00 0.00 0.00 35 1010.8
20260905205031 100 322 2.6 7.8 0.00 0.00 0.00 36 1011.0
20260905204350 98 310 3.5 7.8 0.00 0.00 0.00 38 1011.2
20260905203711 99 303 3.5 7.8 0.00 0.00 0.00 38 1011.1
20260905203030 98 323 4.3 7.8 0.00 0.00 0.00 39 1011.2
20260905202350 99 321 4.3 7.8 0.00 0.00 0.00 36 1011.3
20260905201710 98 138 3.5 7.8 0.00 0.00 0.00 38 1011.3
20260905201030 97 9 3.5 7.8 0.00 0.00 0.00 40 1011.6
20260905200350 98 353 4.3 11.3 0.00 0.00 0.00 40 1011.7
20260905195920 97 5 5.2 11.3 0.00 0.00 0.00 40 1011.9
20260905195030 97 48 1.7 5.2 0.00 0.00 0.00 42 1011.9
20260905194351 98 277 1.7 7.0 0.00 0.00 0.00 40 1012.1
20260905193030 98 49 2.6 9.6 0.00 0.00 0.00 39 1012.1
20260905192350 97 344 6.1 10.4 0.00 0.00 0.00 43 1012.2
20260905191710 97 314 6.1 9.6 0.00 0.00 0.00 43 1012.2
20260905191031 98 275 4.3 7.8 0.00 0.00 0.00 43 1012.4
20260905190350 97 291 4.3 7.0 0.00 0.00 0.00 42 1012.6
20260905185710 96 80 3.5 7.0 0.00 0.00 0.00 42 1012.8
20260905185030 97 57 3.5 7.8 0.00 0.00 0.00 42 1012.7
20260905184350 97 83 4.3 7.8 0.00 0.00 0.00 43 1012.9
20260905183923 97 273 3.5 7.8 0.00 0.00 0.00 44 1012.9
20260905183030 96 337 3.5 7.8 0.00 0.00 0.00 44 1013.0
20260905182350 97 45 2.6 7.8 0.00 0.00 0.00 43 1013.1
20260905181710 97 360 2.6 7.8 0.00 0.00 0.00 44 1013.2
20260905181030 95 336 5.2 9.6 0.00 0.00 0.00 46 1013.2
20260905180350 95 333 4.3 9.6 0.00 0.00 0.00 47 1013.2
20260905175710 97 13 3.5 7.8 0.00 0.00 0.00 46 1013.4
20260905175030 96 228 3.5 8.7 0.00 0.00 0.00 48 1013.4
20260905174351 96 345 4.3 8.7 0.00 0.00 0.00 47 1013.4
20260905173710 95 182 1.7 8.7 0.00 0.00 0.00 48 1013.5
20260905173030 94 35 4.3 9.6 0.00 0.00 0.00 50 1013.6
20260905172605 93 293 4.3 9.6 0.00 0.00 0.00 51 1013.7
20260905171920 94 318 4.3 8.7 0.00 0.00 0.00 50 1013.8
20260905171030 94 310 1.7 8.7 0.00 0.00 0.00 51 1013.8
20260905170350 94 300 3.5 12.2 0.00 0.00 0.00 50 1013.8
20260905165710 93 328 5.2 12.2 0.00 0.00 0.00 53 1013.7
20260905165243 94 326 3.5 7.0 0.00 0.00 0.00 51 1014.0
20260905164351 94 358 4.3 7.0 0.00 0.00 0.00 52 1014.1
20260905163710 94 308 2.6 8.7 0.00 0.00 0.00 54 1014.3
20260905163030 93 79 2.6 7.8 0.00 0.00 0.00 54 1014.4
20260905162600 92 353 5.2 7.8 0.00 0.00 0.00 55 1014.4
20260905161921 92 288 2.6 7.0 0.00 0.00 0.00 55 1014.5
20260905161030 92 17 4.3 7.0 0.00 0.00 0.00 55 1014.6
20260905160351 94 300 2.6 5.2 0.00 0.00 0.00 55 1014.7
20260905155712 92 48 3.5 5.2 0.00 0.00 0.00 57 1014.7
20260905155030 93 59 2.6 7.0 0.00 0.00 0.00 55 1014.9
20260905154351 91 339 1.7 7.0 0.00 0.00 0.00 59 1014.8
20260905153711 90 314 2.6 7.0 0.00 0.00 0.00 59 1014.8
20260905153240 90 327 0.9 5.2 0.00 0.00 0.00 62 1014.8
20260905152601 89 298 1.7 5.2 0.00 0.00 0.00 64 1014.9
20260905151710 89 245 2.6 5.2 0.00 0.00 0.00 65 1015.0
20260905151242 91 301 1.7 4.3 0.00 0.00 0.00 62 1014.9
20260905150350 89 329 1.7 4.3 0.00 0.00 0.00 65 1014.9
20260905145710 89 287 1.7 3.5 0.00 0.00 0.00 65 1014.8
20260905145244 88 50 0.9 4.3 0.00 0.00 0.00 68 1014.8
20260905144350 89 326 2.6 4.3 0.00 0.00 0.00 66 1014.9
20260905143710 88 89 0.9 3.5 0.00 0.00 0.00 68 1014.8
20260905143031 86 240 0.9 4.3 0.00 0.00 0.00 72 1015.0
20260905142350 87 235 1.7 4.3 0.00 0.00 0.00 70 1015.0
20260905141711 86 177 1.7 3.5 0.00 0.00 0.00 72 1015.1